contact:dominique.lefevre@mio.osupytheas.fr, maurice.libes@osupytheas.fr, didier.mallarino@osupytheas.fr
Project:EMSO http://www.emso-fr.org/EMSO-France
Depth: 2436.0 m
Title:EMSO Ligure Ouest : Data MII capteur MICROCAT
DateTime_Computer,Latitude,Longitude,Temperature,Conductivity,Pressure,DateTime_Instrument
DateTime_Computer,Latitude,Longitude,degC,S m-1,dbar,DateTime_Instrument
2023-03-04T00:00:47Z,42.805,6.029,13.3039,4.60125,2470.646,2023-3-04T02:03:21Z
2023-03-04T00:03:50Z,42.805,6.029,13.3029,4.60125,2470.6,2023-3-04T02:06:24Z
2023-03-04T00:06:53Z,42.805,6.029,13.3027,4.60110,2470.624,2023-3-04T02:09:27Z
2023-03-04T00:09:57Z,42.805,6.029,13.3031,4.60114,2470.624,2023-3-04T02:12:30Z
2023-03-04T00:13:00Z,42.805,6.029,13.3034,4.60110,2470.614,2023-3-04T02:15:33Z
2023-03-04T00:16:03Z,42.805,6.029,13.3031,4.60113,2470.646,2023-3-04T02:18:36Z
2023-03-04T00:19:06Z,42.805,6.029,13.3033,4.60110,2470.637,2023-3-04T02:21:39Z
2023-03-04T00:22:09Z,42.805,6.029,13.3038,4.60123,2470.6,2023-3-04T02:24:42Z
2023-03-04T00:25:12Z,42.805,6.029,13.3031,4.60109,2470.6,2023-3-04T02:27:45Z
2023-03-04T00:28:15Z,42.805,6.029,13.3028,4.60104,2470.637,2023-3-04T02:30:48Z
2023-03-04T00:31:18Z,42.805,6.029,13.3032,4.60119,2470.6,2023-3-04T02:33:51Z
2023-03-04T00:34:21Z,42.805,6.029,13.3036,4.60115,2470.646,2023-3-04T02:36:54Z
2023-03-04T00:37:24Z,42.805,6.029,13.3039,4.60130,2470.6,2023-3-04T02:39:57Z
2023-03-04T00:40:27Z,42.805,6.029,13.3036,4.60129,2470.624,2023-3-04T02:43:01Z
2023-03-04T00:43:30Z,42.805,6.029,13.3035,4.60099,2470.637,2023-3-04T02:46:04Z
2023-03-04T00:46:33Z,42.805,6.029,13.3031,4.60104,2470.646,2023-3-04T02:49:07Z
2023-03-04T00:49:37Z,42.805,6.029,13.3029,4.60103,2470.614,2023-3-04T02:52:10Z
2023-03-04T00:52:40Z,42.805,6.029,13.3032,4.60105,2470.661,2023-3-04T02:55:13Z
2023-03-04T00:55:43Z,42.805,6.029,13.3048,4.60128,2470.637,2023-3-04T02:58:16Z
2023-03-04T00:58:46Z,42.805,6.029,13.3033,4.60114,2470.646,2023-3-04T03:01:19Z
2023-03-04T01:01:49Z,42.805,6.029,13.3029,4.60120,2470.646,2023-3-04T03:04:22Z
2023-03-04T01:04:52Z,42.805,6.029,13.3036,4.60122,2470.646,2023-3-04T03:07:25Z
2023-03-04T01:07:55Z,42.805,6.029,13.3039,4.60109,2470.624,2023-3-04T03:10:28Z
2023-03-04T01:10:58Z,42.805,6.029,13.3031,4.60121,2470.637,2023-3-04T03:13:31Z
2023-03-04T01:14:01Z,42.805,6.029,13.3032,4.60110,2470.661,2023-3-04T03:16:34Z
2023-03-04T01:17:04Z,42.805,6.029,13.3035,4.60092,2470.624,2023-3-04T03:19:37Z
2023-03-04T01:20:07Z,42.805,6.029,13.3027,4.60119,2470.67,2023-3-04T03:22:40Z
2023-03-04T01:23:10Z,42.805,6.029,13.3035,4.60123,2470.624,2023-3-04T03:25:44Z
2023-03-04T01:26:13Z,42.805,6.029,13.3026,4.60115,2470.661,2023-3-04T03:28:47Z
2023-03-04T01:29:16Z,42.805,6.029,13.3024,4.60101,2470.624,2023-3-04T03:31:50Z
2023-03-04T01:32:20Z,42.805,6.029,13.3027,4.60104,2470.624,2023-3-04T03:34:53Z
2023-03-04T01:35:23Z,42.805,6.029,13.3039,4.60139,2470.646,2023-3-04T03:37:56Z
2023-03-04T01:38:26Z,42.805,6.029,13.3037,4.60121,2470.684,2023-3-04T03:40:59Z
2023-03-04T01:41:29Z,42.805,6.029,13.3032,4.60116,2470.661,2023-3-04T03:44:02Z
2023-03-04T01:44:32Z,42.805,6.029,13.3029,4.60106,2470.684,2023-3-04T03:47:05Z
2023-03-04T01:47:35Z,42.805,6.029,13.3030,4.60112,2470.67,2023-3-04T03:50:08Z
2023-03-04T01:50:38Z,42.805,6.029,13.3036,4.60119,2470.684,2023-3-04T03:53:11Z
2023-03-04T01:53:41Z,42.805,6.029,13.3030,4.60113,2470.684,2023-3-04T03:56:14Z
2023-03-04T01:56:44Z,42.805,6.029,13.3026,4.60123,2470.661,2023-3-04T03:59:17Z
2023-03-04T01:59:47Z,42.805,6.029,13.3037,4.60132,2470.646,2023-3-04T04:02:20Z
2023-03-04T02:02:50Z,42.805,6.029,13.3036,4.60143,2470.624,2023-3-04T04:05:24Z
2023-03-04T02:05:53Z,42.805,6.029,13.3039,4.60141,2470.661,2023-3-04T04:08:27Z
2023-03-04T02:08:56Z,42.805,6.029,13.3036,4.60132,2470.661,2023-3-04T04:11:30Z
2023-03-04T02:12:00Z,42.805,6.029,13.3034,4.60119,2470.684,2023-3-04T04:14:33Z
2023-03-04T02:15:03Z,42.805,6.029,13.3034,4.60130,2470.67,2023-3-04T04:17:36Z
2023-03-04T02:18:06Z,42.805,6.029,13.3035,4.60113,2470.67,2023-3-04T04:20:39Z
2023-03-04T02:21:09Z,42.805,6.029,13.3039,4.60145,2470.684,2023-3-04T04:23:42Z
2023-03-04T02:24:12Z,42.805,6.029,13.3031,4.60110,2470.646,2023-3-04T04:26:45Z
2023-03-04T02:27:15Z,42.805,6.029,13.3039,4.60132,2470.67,2023-3-04T04:29:48Z
2023-03-04T02:30:18Z,42.805,6.029,13.3036,4.60127,2470.67,2023-3-04T04:32:51Z
2023-03-04T02:33:21Z,42.805,6.029,13.3031,4.60125,2470.707,2023-3-04T04:35:54Z
2023-03-04T02:36:24Z,42.805,6.029,13.3029,4.60097,2470.67,2023-3-04T04:38:57Z
2023-03-04T02:39:27Z,42.805,6.029,13.3031,4.60114,2470.684,2023-3-04T04:42:00Z
2023-03-04T02:42:30Z,42.805,6.029,13.3026,4.60104,2470.693,2023-3-04T04:45:04Z
2023-03-04T02:45:33Z,42.805,6.029,13.3033,4.60115,2470.67,2023-3-04T04:48:07Z
2023-03-04T02:48:36Z,42.805,6.029,13.3033,4.60115,2470.67,2023-3-04T04:51:10Z
2023-03-04T02:51:39Z,42.805,6.029,13.3034,4.60110,2470.693,2023-3-04T04:54:13Z
2023-03-04T02:54:43Z,42.805,6.029,13.3036,4.60114,2470.693,2023-3-04T04:57:16Z
2023-03-04T02:57:46Z,42.805,6.029,13.3031,4.60124,2470.67,2023-3-04T05:00:19Z
2023-03-04T03:00:49Z,42.805,6.029,13.3022,4.60107,2470.684,2023-3-04T05:03:22Z
2023-03-04T03:03:52Z,42.805,6.029,13.3028,4.60102,2470.693,2023-3-04T05:06:25Z
2023-03-04T03:06:55Z,42.805,6.029,13.3023,4.60099,2470.67,2023-3-04T05:09:28Z
2023-03-04T03:09:58Z,42.805,6.029,13.3026,4.60105,2470.67,2023-3-04T05:12:31Z
2023-03-04T03:13:01Z,42.805,6.029,13.3029,4.60098,2470.684,2023-3-04T05:15:34Z
2023-03-04T03:16:04Z,42.805,6.029,13.3022,4.60108,2470.693,2023-3-04T05:18:37Z
2023-03-04T03:19:07Z,42.805,6.029,13.3033,4.60119,2470.717,2023-3-04T05:21:40Z
2023-03-04T03:22:10Z,42.805,6.029,13.3026,4.60099,2470.693,2023-3-04T05:24:44Z
2023-03-04T03:25:13Z,42.805,6.029,13.3029,4.60127,2470.73,2023-3-04T05:27:47Z
2023-03-04T03:28:16Z,42.805,6.029,13.3029,4.60099,2470.717,2023-3-04T05:30:50Z
2023-03-04T03:31:19Z,42.805,6.029,13.3038,4.60112,2470.693,2023-3-04T05:33:53Z
2023-03-04T03:34:23Z,42.805,6.029,13.3034,4.60125,2470.754,2023-3-04T05:36:56Z
2023-03-04T03:37:26Z,42.805,6.029,13.3027,4.60099,2470.717,2023-3-04T05:39:59Z
2023-03-04T03:40:29Z,42.805,6.029,13.3031,4.60102,2470.73,2023-3-04T05:43:02Z
2023-03-04T03:43:32Z,42.805,6.029,13.3030,4.60100,2470.717,2023-3-04T05:46:05Z
2023-03-04T03:46:35Z,42.805,6.029,13.3032,4.60115,2470.763,2023-3-04T05:49:08Z
2023-03-04T03:49:38Z,42.805,6.029,13.3037,4.60125,2470.74,2023-3-04T05:52:11Z
2023-03-04T03:52:41Z,42.805,6.029,13.3034,4.60129,2470.74,2023-3-04T05:55:14Z
2023-03-04T03:55:44Z,42.805,6.029,13.3036,4.60131,2470.754,2023-3-04T05:58:17Z
2023-03-04T03:58:47Z,42.805,6.029,13.3029,4.60111,2470.74,2023-3-04T06:01:20Z
2023-03-04T04:01:50Z,42.805,6.029,13.3034,4.60131,2470.703,2023-3-04T06:04:23Z
2023-03-04T04:04:53Z,42.805,6.029,13.3031,4.60100,2470.763,2023-3-04T06:07:27Z
2023-03-04T04:07:56Z,42.805,6.029,13.3028,4.60094,2470.74,2023-3-04T06:10:30Z
2023-03-04T04:10:59Z,42.805,6.029,13.3026,4.60096,2470.763,2023-3-04T06:13:33Z
2023-03-04T04:14:02Z,42.805,6.029,13.3034,4.60105,2470.777,2023-3-04T06:16:36Z
2023-03-04T04:17:06Z,42.805,6.029,13.3030,4.60119,2470.74,2023-3-04T06:19:39Z
2023-03-04T04:20:09Z,42.805,6.029,13.3043,4.60104,2470.763,2023-3-04T06:22:42Z
2023-03-04T04:23:12Z,42.805,6.029,13.3022,4.60094,2470.763,2023-3-04T06:25:45Z
2023-03-04T04:26:15Z,42.805,6.029,13.3036,4.60101,2470.74,2023-3-04T06:28:48Z
2023-03-04T04:29:18Z,42.805,6.029,13.3035,4.60109,2470.777,2023-3-04T06:31:51Z
2023-03-04T04:32:21Z,42.805,6.029,13.3034,4.60118,2470.763,2023-3-04T06:34:54Z
2023-03-04T04:35:24Z,42.805,6.029,13.3027,4.60121,2470.777,2023-3-04T06:37:57Z
2023-03-04T04:38:27Z,42.805,6.029,13.3029,4.60094,2470.763,2023-3-04T06:41:00Z
2023-03-04T04:41:30Z,42.805,6.029,13.3033,4.60102,2470.777,2023-3-04T06:44:03Z
2023-03-04T04:44:33Z,42.805,6.029,13.3029,4.60099,2470.81,2023-3-04T06:47:07Z
2023-03-04T04:47:36Z,42.805,6.029,13.3039,4.60121,2470.787,2023-3-04T06:50:10Z
2023-03-04T04:50:39Z,42.805,6.029,13.3033,4.60115,2470.763,2023-3-04T06:53:13Z
2023-03-04T04:53:42Z,42.805,6.029,13.3041,4.60127,2470.787,2023-3-04T06:56:16Z
2023-03-04T04:56:46Z,42.805,6.029,13.3036,4.60110,2470.824,2023-3-04T06:59:19Z
2023-03-04T04:59:49Z,42.805,6.029,13.3038,4.60141,2470.787,2023-3-04T07:02:22Z
2023-03-04T05:02:52Z,42.805,6.029,13.3039,4.60112,2470.777,2023-3-04T07:05:25Z
2023-03-04T05:05:55Z,42.805,6.029,13.3042,4.60118,2470.777,2023-3-04T07:08:28Z
2023-03-04T05:08:58Z,42.805,6.029,13.3047,4.60119,2470.763,2023-3-04T07:11:31Z
2023-03-04T05:12:01Z,42.805,6.029,13.3048,4.60138,2470.81,2023-3-04T07:14:34Z
2023-03-04T05:15:04Z,42.805,6.029,13.3037,4.60125,2470.787,2023-3-04T07:17:37Z
2023-03-04T05:18:07Z,42.805,6.029,13.3035,4.60111,2470.847,2023-3-04T07:20:40Z
2023-03-04T05:21:10Z,42.805,6.029,13.3033,4.60121,2470.763,2023-3-04T07:23:43Z
2023-03-04T05:24:13Z,42.805,6.029,13.3043,4.60107,2470.777,2023-3-04T07:26:47Z
2023-03-04T05:27:16Z,42.805,6.029,13.3048,4.60122,2470.787,2023-3-04T07:29:50Z
2023-03-04T05:30:19Z,42.805,6.029,13.3038,4.60140,2470.81,2023-3-04T07:32:53Z
2023-03-04T05:33:22Z,42.805,6.029,13.3050,4.60139,2470.787,2023-3-04T07:35:56Z
2023-03-04T05:36:26Z,42.805,6.029,13.3034,4.60127,2470.787,2023-3-04T07:38:59Z
2023-03-04T05:39:29Z,42.805,6.029,13.3039,4.60150,2470.81,2023-3-04T07:42:02Z
2023-03-04T05:42:32Z,42.805,6.029,13.3041,4.60140,2470.787,2023-3-04T07:45:05Z
2023-03-04T05:45:35Z,42.805,6.029,13.3044,4.60120,2470.8,2023-3-04T07:48:08Z
2023-03-04T05:48:38Z,42.805,6.029,13.3050,4.60134,2470.824,2023-3-04T07:51:11Z
2023-03-04T05:51:41Z,42.805,6.029,13.3045,4.60134,2470.787,2023-3-04T07:54:14Z
2023-03-04T05:54:44Z,42.805,6.029,13.3050,4.60130,2470.81,2023-3-04T07:57:17Z
2023-03-04T05:57:47Z,42.805,6.029,13.3050,4.60155,2470.787,2023-3-04T08:00:20Z
2023-03-04T06:00:50Z,42.805,6.029,13.3046,4.60118,2470.824,2023-3-04T08:03:23Z
2023-03-04T06:03:53Z,42.805,6.029,13.3048,4.60139,2470.81,2023-3-04T08:06:27Z
2023-03-04T06:06:56Z,42.805,6.029,13.3044,4.60152,2470.81,2023-3-04T08:09:30Z
2023-03-04T06:09:59Z,42.805,6.029,13.3063,4.60160,2470.787,2023-3-04T08:12:33Z
2023-03-04T06:13:02Z,42.805,6.029,13.3051,4.60162,2470.81,2023-3-04T08:15:36Z
2023-03-04T06:16:05Z,42.805,6.029,13.3059,4.60158,2470.787,2023-3-04T08:18:39Z
2023-03-04T06:19:09Z,42.805,6.029,13.3066,4.60144,2470.81,2023-3-04T08:21:42Z
2023-03-04T06:22:12Z,42.805,6.029,13.3037,4.60151,2470.787,2023-3-04T08:24:45Z
2023-03-04T06:25:15Z,42.805,6.029,13.3053,4.60160,2470.763,2023-3-04T08:27:48Z
2023-03-04T06:28:18Z,42.805,6.029,13.3053,4.60151,2470.81,2023-3-04T08:30:51Z
2023-03-04T06:31:21Z,42.805,6.029,13.3058,4.60193,2470.787,2023-3-04T08:33:54Z
2023-03-04T06:34:24Z,42.805,6.029,13.3065,4.60130,2470.8,2023-3-04T08:36:57Z
2023-03-04T06:37:27Z,42.805,6.029,13.3046,4.60131,2470.81,2023-3-04T08:40:00Z
2023-03-04T06:40:30Z,42.805,6.029,13.3078,4.60167,2470.81,2023-3-04T08:43:03Z
2023-03-04T06:43:33Z,42.805,6.029,13.3075,4.60165,2470.847,2023-3-04T08:46:06Z
2023-03-04T06:46:36Z,42.805,6.029,13.3055,4.60140,2470.833,2023-3-04T08:49:10Z
2023-03-04T06:49:39Z,42.805,6.029,13.3043,4.60137,2470.787,2023-3-04T08:52:13Z
2023-03-04T06:52:42Z,42.805,6.029,13.3068,4.60173,2470.81,2023-3-04T08:55:16Z
2023-03-04T06:55:45Z,42.805,6.029,13.3090,4.60153,2470.81,2023-3-04T08:58:19Z
2023-03-04T06:58:49Z,42.805,6.029,13.3082,4.60146,2470.833,2023-3-04T09:01:22Z
2023-03-04T07:01:52Z,42.805,6.029,13.3084,4.60132,2470.824,2023-3-04T09:04:25Z
2023-03-04T07:04:55Z,42.805,6.029,13.3079,4.60137,2470.81,2023-3-04T09:07:28Z
2023-03-04T07:07:58Z,42.805,6.029,13.3073,4.60106,2470.824,2023-3-04T09:10:31Z
2023-03-04T07:11:01Z,42.805,6.029,13.3049,4.60119,2470.81,2023-3-04T09:13:34Z
2023-03-04T07:14:04Z,42.805,6.029,13.3067,4.60114,2470.81,2023-3-04T09:16:37Z
2023-03-04T07:17:07Z,42.805,6.029,13.3076,4.60106,2470.81,2023-3-04T09:19:40Z
2023-03-04T07:20:10Z,42.805,6.029,13.3058,4.60131,2470.81,2023-3-04T09:22:43Z
2023-03-04T07:23:13Z,42.805,6.029,13.3043,4.60135,2470.847,2023-3-04T09:25:46Z
2023-03-04T07:26:16Z,42.805,6.029,13.3063,4.60117,2470.8,2023-3-04T09:28:50Z
2023-03-04T07:29:19Z,42.805,6.029,13.3064,4.60100,2470.8,2023-3-04T09:31:53Z
2023-03-04T07:32:22Z,42.805,6.029,13.3065,4.60101,2470.824,2023-3-04T09:34:56Z
2023-03-04T07:35:25Z,42.805,6.029,13.3051,4.60120,2470.81,2023-3-04T09:37:59Z
2023-03-04T07:38:29Z,42.805,6.029,13.3054,4.60123,2470.787,2023-3-04T09:41:02Z
2023-03-04T07:41:32Z,42.805,6.029,13.3066,4.60126,2470.81,2023-3-04T09:44:05Z
2023-03-04T07:44:35Z,42.805,6.029,13.3050,4.60103,2470.824,2023-3-04T09:47:08Z
2023-03-04T07:47:38Z,42.805,6.029,13.3061,4.60108,2470.81,2023-3-04T09:50:11Z
2023-03-04T07:50:41Z,42.805,6.029,13.3058,4.60116,2470.81,2023-3-04T09:53:14Z
2023-03-04T07:53:44Z,42.805,6.029,13.3076,4.60115,2470.81,2023-3-04T09:56:17Z
2023-03-04T07:56:47Z,42.805,6.029,13.3052,4.60125,2470.8,2023-3-04T09:59:20Z
2023-03-04T07:59:50Z,42.805,6.029,13.3043,4.60141,2470.8,2023-3-04T10:02:23Z
2023-03-04T08:02:53Z,42.805,6.029,13.3046,4.60119,2470.824,2023-3-04T10:05:26Z
2023-03-04T08:05:56Z,42.805,6.029,13.3039,4.60159,2470.763,2023-3-04T10:08:30Z
2023-03-04T08:08:59Z,42.805,6.029,13.3059,4.60117,2470.8,2023-3-04T10:11:33Z
2023-03-04T08:12:02Z,42.805,6.029,13.3069,4.60112,2470.81,2023-3-04T10:14:36Z
2023-03-04T08:15:05Z,42.805,6.029,13.3078,4.60142,2470.8,2023-3-04T10:17:39Z
2023-03-04T08:18:08Z,42.805,6.029,13.3048,4.60115,2470.81,2023-3-04T10:20:42Z
2023-03-04T08:21:12Z,42.805,6.029,13.3048,4.60127,2470.787,2023-3-04T10:23:45Z
2023-03-04T08:24:15Z,42.805,6.029,13.3079,4.60117,2470.81,2023-3-04T10:26:48Z
2023-03-04T08:27:18Z,42.805,6.029,13.3078,4.60118,2470.824,2023-3-04T10:29:51Z
2023-03-04T08:30:21Z,42.805,6.029,13.3052,4.60140,2470.824,2023-3-04T10:32:54Z
2023-03-04T08:33:24Z,42.805,6.029,13.3055,4.60110,2470.8,2023-3-04T10:35:57Z
2023-03-04T08:36:27Z,42.805,6.029,13.3061,4.60117,2470.777,2023-3-04T10:39:00Z
2023-03-04T08:39:30Z,42.805,6.029,13.3056,4.60137,2470.8,2023-3-04T10:42:03Z
2023-03-04T08:42:33Z,42.805,6.029,13.3057,4.60130,2470.8,2023-3-04T10:45:07Z
2023-03-04T08:45:36Z,42.805,6.029,13.3070,4.60119,2470.787,2023-3-04T10:48:10Z
2023-03-04T08:48:39Z,42.805,6.029,13.3085,4.60127,2470.777,2023-3-04T10:51:13Z
2023-03-04T08:51:42Z,42.805,6.029,13.3070,4.60111,2470.81,2023-3-04T10:54:16Z
2023-03-04T08:54:45Z,42.805,6.029,13.3085,4.60134,2470.8,2023-3-04T10:57:19Z
2023-03-04T08:57:49Z,42.805,6.029,13.3093,4.60140,2470.8,2023-3-04T11:00:22Z
2023-03-04T09:00:52Z,42.805,6.029,13.3082,4.60129,2470.8,2023-3-04T11:03:25Z
2023-03-04T09:03:55Z,42.805,6.029,13.3034,4.60137,2470.763,2023-3-04T11:06:28Z
2023-03-04T09:06:58Z,42.805,6.029,13.3044,4.60132,2470.763,2023-3-04T11:09:31Z
2023-03-04T09:10:01Z,42.805,6.029,13.3041,4.60116,2470.763,2023-3-04T11:12:34Z
2023-03-04T09:13:04Z,42.805,6.029,13.3064,4.60170,2470.754,2023-3-04T11:15:37Z
2023-03-04T09:16:07Z,42.805,6.029,13.3086,4.60149,2470.763,2023-3-04T11:18:40Z
2023-03-04T09:19:10Z,42.805,6.029,13.3100,4.60162,2470.754,2023-3-04T11:21:44Z
2023-03-04T09:22:13Z,42.805,6.029,13.3093,4.60140,2470.754,2023-3-04T11:24:47Z
2023-03-04T09:25:16Z,42.805,6.029,13.3096,4.60132,2470.777,2023-3-04T11:27:50Z
2023-03-04T09:28:19Z,42.805,6.029,13.3094,4.60131,2470.754,2023-3-04T11:30:53Z
2023-03-04T09:31:22Z,42.805,6.029,13.3097,4.60152,2470.754,2023-3-04T11:33:56Z
2023-03-04T09:34:25Z,42.805,6.029,13.3095,4.60146,2470.74,2023-3-04T11:36:59Z
2023-03-04T09:37:29Z,42.805,6.029,13.3098,4.60150,2470.754,2023-3-04T11:40:02Z
2023-03-04T09:40:32Z,42.805,6.029,13.3105,4.60135,2470.73,2023-3-04T11:43:05Z
2023-03-04T09:43:35Z,42.805,6.029,13.3092,4.60144,2470.74,2023-3-04T11:46:08Z
2023-03-04T09:46:38Z,42.805,6.029,13.3049,4.60132,2470.763,2023-3-04T11:49:11Z
2023-03-04T09:49:41Z,42.805,6.029,13.3075,4.60127,2470.73,2023-3-04T11:52:14Z
2023-03-04T09:52:44Z,42.805,6.029,13.3083,4.60156,2470.73,2023-3-04T11:55:17Z
2023-03-04T09:55:47Z,42.805,6.029,13.3091,4.60155,2470.754,2023-3-04T11:58:20Z
2023-03-04T09:58:50Z,42.805,6.029,13.3079,4.60135,2470.73,2023-3-04T12:01:24Z
2023-03-04T10:01:53Z,42.805,6.029,13.3085,4.60115,2470.754,2023-3-04T12:04:27Z
2023-03-04T10:04:56Z,42.805,6.029,13.3065,4.60090,2470.754,2023-3-04T12:07:30Z
2023-03-04T10:07:59Z,42.805,6.029,13.3043,4.60087,2470.777,2023-3-04T12:10:33Z
2023-03-04T10:11:02Z,42.805,6.029,13.3026,4.60089,2470.74,2023-3-04T12:13:36Z
2023-03-04T10:14:05Z,42.805,6.029,13.3026,4.60092,2470.754,2023-3-04T12:16:39Z
2023-03-04T10:17:09Z,42.805,6.029,13.3024,4.60085,2470.73,2023-3-04T12:19:42Z
2023-03-04T10:20:12Z,42.805,6.029,13.3025,4.60089,2470.754,2023-3-04T12:22:45Z
2023-03-04T10:23:15Z,42.805,6.029,13.3033,4.60087,2470.73,2023-3-04T12:25:48Z
2023-03-04T10:26:18Z,42.805,6.029,13.3026,4.60087,2470.693,2023-3-04T12:28:51Z
2023-03-04T10:29:21Z,42.805,6.029,13.3030,4.60094,2470.73,2023-3-04T12:31:54Z
2023-03-04T10:32:24Z,42.805,6.029,13.3027,4.60082,2470.74,2023-3-04T12:34:57Z
2023-03-04T10:35:27Z,42.805,6.029,13.3021,4.60084,2470.73,2023-3-04T12:38:01Z
2023-03-04T10:38:30Z,42.805,6.029,13.3022,4.60082,2470.717,2023-3-04T12:41:04Z
2023-03-04T10:41:33Z,42.805,6.029,13.3021,4.60082,2470.693,2023-3-04T12:44:07Z
2023-03-04T10:44:36Z,42.805,6.029,13.3016,4.60085,2470.703,2023-3-04T12:47:10Z
2023-03-04T10:47:39Z,42.805,6.029,13.3021,4.60084,2470.693,2023-3-04T12:50:13Z
2023-03-04T10:50:43Z,42.805,6.029,13.3019,4.60081,2470.73,2023-3-04T12:53:16Z
2023-03-04T10:53:46Z,42.805,6.029,13.3023,4.60080,2470.717,2023-3-04T12:56:19Z
2023-03-04T10:56:49Z,42.805,6.029,13.3024,4.60081,2470.684,2023-3-04T12:59:22Z
2023-03-04T10:59:52Z,42.805,6.029,13.3018,4.60079,2470.74,2023-3-04T13:02:25Z
2023-03-04T11:02:55Z,42.805,6.029,13.3018,4.60082,2470.693,2023-3-04T13:05:28Z
2023-03-04T11:05:58Z,42.805,6.029,13.3023,4.60080,2470.693,2023-3-04T13:08:31Z
2023-03-04T11:09:01Z,42.805,6.029,13.3018,4.60079,2470.74,2023-3-04T13:11:34Z
2023-03-04T11:12:04Z,42.805,6.029,13.3017,4.60080,2470.693,2023-3-04T13:14:38Z
2023-03-04T11:15:07Z,42.805,6.029,13.3017,4.60081,2470.707,2023-3-04T13:17:41Z
2023-03-04T11:18:10Z,42.805,6.029,13.3015,4.60084,2470.67,2023-3-04T13:20:44Z
2023-03-04T11:21:13Z,42.805,6.029,13.3018,4.60089,2470.693,2023-3-04T13:23:47Z
2023-03-04T11:24:16Z,42.805,6.029,13.3021,4.60090,2470.717,2023-3-04T13:26:50Z
2023-03-04T11:27:19Z,42.805,6.029,13.3028,4.60086,2470.693,2023-3-04T13:29:53Z
2023-03-04T11:30:23Z,42.805,6.029,13.3021,4.60096,2470.693,2023-3-04T13:32:56Z
2023-03-04T11:33:26Z,42.805,6.029,13.3018,4.60086,2470.67,2023-3-04T13:35:59Z
2023-03-04T11:36:29Z,42.805,6.029,13.3022,4.60080,2470.67,2023-3-04T13:39:02Z
2023-03-04T11:39:32Z,42.805,6.029,13.3017,4.60087,2470.707,2023-3-04T13:42:05Z
2023-03-04T11:42:35Z,42.805,6.029,13.3020,4.60079,2470.67,2023-3-04T13:45:08Z
2023-03-04T11:45:38Z,42.805,6.029,13.3020,4.60079,2470.73,2023-3-04T13:48:11Z
2023-03-04T11:48:41Z,42.805,6.029,13.3015,4.60080,2470.661,2023-3-04T13:51:14Z
2023-03-04T11:51:44Z,42.805,6.029,13.3021,4.60077,2470.717,2023-3-04T13:54:18Z
2023-03-04T11:54:47Z,42.805,6.029,13.3014,4.60082,2470.684,2023-3-04T13:57:21Z
2023-03-04T11:57:50Z,42.805,6.029,13.3018,4.60079,2470.646,2023-3-04T14:00:24Z
2023-03-04T12:00:53Z,42.805,6.029,13.3020,4.60079,2470.684,2023-3-04T14:03:27Z
2023-03-04T12:03:56Z,42.805,6.029,13.3019,4.60080,2470.67,2023-3-04T14:06:30Z
2023-03-04T12:07:00Z,42.805,6.029,13.3015,4.60085,2470.693,2023-3-04T14:09:33Z
2023-03-04T12:10:03Z,42.805,6.029,13.3017,4.60081,2470.646,2023-3-04T14:12:36Z
2023-03-04T12:13:06Z,42.805,6.029,13.3022,4.60088,2470.67,2023-3-04T14:15:39Z
2023-03-04T12:16:09Z,42.805,6.029,13.3022,4.60084,2470.646,2023-3-04T14:18:42Z
2023-03-04T12:19:12Z,42.805,6.029,13.3025,4.60097,2470.693,2023-3-04T14:21:45Z
2023-03-04T12:22:15Z,42.805,6.029,13.3025,4.60084,2470.661,2023-3-04T14:24:48Z
2023-03-04T12:25:18Z,42.805,6.029,13.3018,4.60080,2470.67,2023-3-04T14:27:51Z
2023-03-04T12:28:21Z,42.805,6.029,13.3018,4.60082,2470.684,2023-3-04T14:30:55Z
2023-03-04T12:31:24Z,42.805,6.029,13.3023,4.60079,2470.646,2023-3-04T14:33:58Z
2023-03-04T12:34:27Z,42.805,6.029,13.3027,4.60088,2470.646,2023-3-04T14:37:01Z
2023-03-04T12:37:30Z,42.805,6.029,13.3049,4.60113,2470.67,2023-3-04T14:40:04Z
2023-03-04T12:40:33Z,42.805,6.029,13.3051,4.60102,2470.684,2023-3-04T14:43:07Z
2023-03-04T12:43:36Z,42.805,6.029,13.3039,4.60081,2470.661,2023-3-04T14:46:10Z
2023-03-04T12:46:40Z,42.805,6.029,13.3021,4.60089,2470.693,2023-3-04T14:49:13Z
2023-03-04T12:49:43Z,42.805,6.029,13.3021,4.60090,2470.684,2023-3-04T14:52:16Z
2023-03-04T12:52:46Z,42.805,6.029,13.3036,4.60091,2470.646,2023-3-04T14:55:19Z
2023-03-04T12:55:49Z,42.805,6.029,13.3021,4.60095,2470.661,2023-3-04T14:58:22Z
2023-03-04T12:58:52Z,42.805,6.029,13.3029,4.60105,2470.646,2023-3-04T15:01:25Z
2023-03-04T13:01:55Z,42.805,6.029,13.3031,4.60118,2470.67,2023-3-04T15:04:28Z
2023-03-04T13:04:58Z,42.805,6.029,13.3028,4.60094,2470.646,2023-3-04T15:07:31Z
2023-03-04T13:08:01Z,42.805,6.029,13.3029,4.60084,2470.624,2023-3-04T15:10:35Z
2023-03-04T13:11:04Z,42.805,6.029,13.3031,4.60098,2470.67,2023-3-04T15:13:38Z
2023-03-04T13:14:07Z,42.805,6.029,13.3025,4.60087,2470.646,2023-3-04T15:16:41Z
2023-03-04T13:17:10Z,42.805,6.029,13.3024,4.60084,2470.67,2023-3-04T15:19:44Z
2023-03-04T13:20:13Z,42.805,6.029,13.3029,4.60097,2470.646,2023-3-04T15:22:47Z
2023-03-04T13:23:17Z,42.805,6.029,13.3026,4.60084,2470.637,2023-3-04T15:25:50Z
2023-03-04T13:26:20Z,42.805,6.029,13.3041,4.60085,2470.646,2023-3-04T15:28:53Z
2023-03-04T13:29:23Z,42.805,6.029,13.3029,4.60087,2470.67,2023-3-04T15:31:56Z
2023-03-04T13:32:26Z,42.805,6.029,13.3041,4.60089,2470.637,2023-3-04T15:34:59Z
2023-03-04T13:35:29Z,42.805,6.029,13.3046,4.60122,2470.646,2023-3-04T15:38:02Z
2023-03-04T13:38:32Z,42.805,6.029,13.3045,4.60102,2470.684,2023-3-04T15:41:05Z
2023-03-04T13:41:35Z,42.805,6.029,13.3054,4.60111,2470.661,2023-3-04T15:44:08Z
2023-03-04T13:44:38Z,42.805,6.029,13.3054,4.60112,2470.646,2023-3-04T15:47:12Z
2023-03-04T13:47:41Z,42.805,6.029,13.3055,4.60152,2470.67,2023-3-04T15:50:15Z
2023-03-04T13:50:44Z,42.805,6.029,13.3046,4.60178,2470.67,2023-3-04T15:53:18Z
2023-03-04T13:53:47Z,42.805,6.029,13.3041,4.60129,2470.646,2023-3-04T15:56:21Z
2023-03-04T13:56:50Z,42.805,6.029,13.3041,4.60130,2470.646,2023-3-04T15:59:24Z
2023-03-04T13:59:53Z,42.805,6.029,13.3043,4.60161,2470.637,2023-3-04T16:02:27Z
2023-03-04T14:02:56Z,42.805,6.029,13.3037,4.60149,2470.656,2023-3-04T16:05:30Z
2023-03-04T14:06:00Z,42.805,6.029,13.3051,4.60152,2470.661,2023-3-04T16:08:33Z
2023-03-04T14:09:03Z,42.805,6.029,13.3048,4.60131,2470.67,2023-3-04T16:11:36Z
2023-03-04T14:12:06Z,42.805,6.029,13.3057,4.60161,2470.73,2023-3-04T16:14:39Z
2023-03-04T14:15:09Z,42.805,6.029,13.3041,4.60131,2470.661,2023-3-04T16:17:42Z
2023-03-04T14:18:12Z,42.805,6.029,13.3043,4.60140,2470.661,2023-3-04T16:20:45Z
2023-03-04T14:21:15Z,42.805,6.029,13.3050,4.60147,2470.646,2023-3-04T16:23:48Z
2023-03-04T14:24:18Z,42.805,6.029,13.3043,4.60148,2470.646,2023-3-04T16:26:52Z
2023-03-04T14:27:21Z,42.805,6.029,13.3039,4.60154,2470.67,2023-3-04T16:29:55Z
2023-03-04T14:30:24Z,42.805,6.029,13.3032,4.60126,2470.646,2023-3-04T16:32:58Z
2023-03-04T14:33:27Z,42.805,6.029,13.3049,4.60141,2470.661,2023-3-04T16:36:01Z
2023-03-04T14:36:30Z,42.805,6.029,13.3048,4.60148,2470.624,2023-3-04T16:39:04Z
2023-03-04T14:39:33Z,42.805,6.029,13.3031,4.60134,2470.67,2023-3-04T16:42:07Z
2023-03-04T14:42:37Z,42.805,6.029,13.3036,4.60151,2470.684,2023-3-04T16:45:10Z
2023-03-04T14:45:40Z,42.805,6.029,13.3051,4.60160,2470.684,2023-3-04T16:48:13Z
2023-03-04T14:48:43Z,42.805,6.029,13.3050,4.60156,2470.67,2023-3-04T16:51:16Z
2023-03-04T14:51:46Z,42.805,6.029,13.3041,4.60137,2470.67,2023-3-04T16:54:19Z
2023-03-04T14:54:49Z,42.805,6.029,13.3045,4.60162,2470.684,2023-3-04T16:57:22Z
2023-03-04T14:57:52Z,42.805,6.029,13.3039,4.60140,2470.661,2023-3-04T17:00:25Z
2023-03-04T15:00:55Z,42.805,6.029,13.3043,4.60162,2470.67,2023-3-04T17:03:29Z
2023-03-04T15:03:58Z,42.805,6.029,13.3041,4.60163,2470.684,2023-3-04T17:06:32Z
2023-03-04T15:07:01Z,42.805,6.029,13.3028,4.60136,2470.693,2023-3-04T17:09:35Z
2023-03-04T15:10:04Z,42.805,6.029,13.3062,4.60136,2470.693,2023-3-04T17:12:38Z
2023-03-04T15:13:07Z,42.805,6.029,13.3027,4.60127,2470.67,2023-3-04T17:15:41Z